462  
ASUS41 KOKX 071814  
RWROKX  
 
REGIONAL WEATHER ROUNDUP  
NATIONAL WEATHER SERVICE NEW YORK NY  
200 PM EDT TUE JUL 07 2020  
 
NOTE: "FAIR" INDICATES FEW OR NO CLOUDS BELOW 12,000 FEET WITH NO  
SIGNIFICANT WEATHER AND/OR S TO VISIBILITY
.  
 
NYZ071-072-176-178-NJZ106-104-071900-  
NEW YORK CITY METRO AREA  
 
CITY SKY/WX TMP DP RH WIND PRES REMARKS
 
CENTRAL PARK CLOUDY 80 68 66 VRB3 30.13F  
BRONX LEHMAN C N/A 79 70 73 E9 N/A  
LAGUARDIA ARPT PTSUNNY 76 67 73 NE13 30.10S  
QUEENS COLLEGE N/A 79 70 73 SE9 N/A  
KENNEDY INTL PTSUNNY 80 70 71 SE14 30.11F  
BREEZY POINT NOT AVBL  
BROOKLYN COLL N/A 77 70 78 E12 N/A  
STATEN ISLAND N/A 79 70 73 SE13 N/A  
NEWARK/LIBERTY PTSUNNY 82 69 64 SE9G20 30.09F  
TETERBORO CLOUDY 79 68 69 SE9 30.08F  

 
 
NYZ177-179-078>081-071900-  
LONG ISLAND NEW YORK  
 
CITY SKY/WX TMP DP RH WIND PRES REMARKS
 
JONES BEACH NOT AVBL  
WANTAGH N/A 77 72 83 E12 N/A  
HEMPSTEAD NOT AVBL  
MATINECOCK PT NOT AVBL  
FARMINGDALE CLOUDY 78 68 71 SE12 30.13S  
MACARTHUR/ISP CLOUDY 73 70 90 SE12 30.13F  
STONY BROOK N/A 72 72 100 SE5 N/A  
SHIRLEY CLOUDY 72 67 84 SE8 30.15S  
MT SINAI HARB NOT AVBL  
WESTHAMPTON CLOUDY 69 66 90 SE8 30.17S  
EAST HAMPTON CLOUDY 68 63 84 SE9 30.16S  
SOUTHOLD N/A 70 64 83 SE5 N/A  
MONTAUK N/A 71 63 75 VRB5 30.17S  

 
 
NYZ052-065-067-071900-  
HUDSON VALLEY  
 
CITY SKY/WX TMP DP RH WIND PRES REMARKS
 
WHITE PLAINS PTSUNNY 76 67 73 E12 30.12F  
LARCHMONT HARB NOT AVBL  
CROTON ON HUDS NOT AVBL  
SOMERS N/A 73 68 83 SE9 N/A  
BREWSTER N/A 72 66 83 S6 N/A  
NEWBURGH PTSUNNY 79 68 69 S12 30.11F  
MONTGOMERY CLOUDY 79 68 69 SE8 30.09F  
OTISVILLE N/A 77 68 73 SE6 N/A  
WARWICK N/A 79 70 73 SE12 N/A  
SUFFERN N/A 79 70 73 E2 N/A  
POUGHKEEPSIE CLOUDY 78 66 66 SE8 30.09F  
ALBANY MOSUNNY 83 64 52 S15G25 30.06F  

 
 
NJZ001-105-106-008-010-013-015-019>022-104-071900-  
NEW JERSEY  
 
CITY SKY/WX TMP DP RH WIND PRES REMARKS
 
NEWARK/LIBERTY PTSUNNY 82 69 64 SE9G20 30.09F  
TETERBORO CLOUDY 79 68 69 SE9 30.08F  
CALDWELL PTSUNNY 83 69 62 SE12G17 30.09F  
SOMERVILLE CLOUDY 83 70 64 CALM 30.06F  
LINDEN MOCLDY 80 69 70 SE10 30.10S  
PERTH AMBOY NOT AVBL  
SUSSEX PTSUNNY 82 68 62 SE8 30.09S  
ANDOVER N/A 82 68 62 VRB5 30.09F  
TRENTON MOSUNNY 87 68 52 VRB6 30.07S HX 90  
MILLVILLE PTSUNNY 84 70 62 S9 30.07F  
ATLANTIC CITY MOSUNNY 85 69 58 S10 30.08  
WRIGHTSTOWN PTSUNNY 84 72 65 S5 30.07 HX 90  
TOMS RIVER PTSUNNY 84 72 67 SE10 30.08F  
BELMAR PTSUNNY 81 77 88 E12 30.11S  

 
 
PAZ047>061-062-071-071900-  
EASTERN PENNSYLVANIA  
 
CITY SKY/WX TMP DP RH WIND PRES REMARKS
 
PHILADELPHIA PTSUNNY 87 68 52 VRB6 30.06F HX 90  
ALLENTOWN PTSUNNY 83 67 58 S7 30.08S  
SCRANTON CLOUDY 80 66 62 MISG 30.09S  

 
 
CTZ002-004>006-009-010-012-RIZ004-006-007-MAZ004-011-015-071900-  
SOUTHERN NEW ENGLAND  
 
IN CT  
 
CITY SKY/WX TMP DP RH WIND PRES REMARKS
 
BRADLEY INTL CLOUDY 74 63 68 S8 30.13S  
HARTFORD CLOUDY 75 65 70 SE7 30.13F  
DANBURY CLOUDY 71 66 84 SE9 30.15S  
WTRBURY/OXFORD CLOUDY 70 66 87 SE10 30.16F  
NORWALK HARBOR NOT AVBL  
BRIDGEPORT CLOUDY 69 66 90 E13 30.15R  
MERIDEN CLOUDY 72 64 76 S7 30.14F  
NEW HAVEN CLOUDY 71 66 84 E13 30.15F  
CHESTER CLOUDY 68 64 88 VRB7 30.17S  
GROTON CLOUDY 69 62 78 SE9 30.16S  
WILLIMANTIC CLOUDY 74 64 71 S9 30.15S  
 
IN RI  
 
CITY SKY/WX TMP DP RH WIND PRES REMARKS
 
PROVIDENCE PTSUNNY 71 61 70 SE14 30.17F  
BLOCK ISLAND PTSUNNY 68 61 78 SE14 30.18S  
WESTERLY PTSUNNY 73 61 65 SE10 30.18S  
 
IN MA  
 
CITY SKY/WX TMP DP RH WIND PRES REMARKS
 
BOSTON PTSUNNY 74 59 59 SE9 30.13F  
WORCESTER PTSUNNY 77 60 55 S10 30.15F  
WESTFIELD CLOUDY 74 64 71 SE8 30.12F  
PROVINCETOWN MOSUNNY 71 60 68 S14G20 30.18S  
NANTUCKET SUNNY 63 56 78 SE13 30.20R  

 
 
ANZ330-335-338-340-345-350-353-355-071900-  
COASTAL MARINE OBSERVATIONS  
 
 
STATION/POSITION TIME SKY/WX TEMP WIND PRES VSBY WAVE
 
AIR SEA DIR/SP/G HT/PER  
(UTC) (F) (DEG/KT/KT) (MB) (MI) (FT/S)  
NY HARB ENTRANCE NOT AVBL  
20 S FIRE ISLAND NOT AVBL  
GREAT SOUTH BAY NOT AVBL  
23 SSW MONTAUK P NOT AVBL  
15 E BARNEGAT LI 1726 77 N/A 3/ 9  
HUDSON CANYON NOT AVBL  
KINGS POINT 1724 78 200/ 6/ 9 1020.1  
EXECUTION ROCKS 1745 71 50/ 16/ 17 N/A  
WESTERN LI SOUND 1800 70 80/ 14/ 19 N/A 1/ 3  
CENTRAL LI SOUND NOT AVBL  
ROBBINS REEF 1730 77 140/ 11/ 15 1019.3  

 
 
>>>>>>>>>>>>>>>>>>>>>>>>>>>> KEY <<<<<<<<<<<<<<<<<<<<<<<<<<<  
> <  
> SKY/WX - SKY CONDITION/PRESENT WEATHER <  
> TMP - TEMPERATURE IN FAHRENHEIT <  
> DP - DEW POINT IN FAHRENHEIT <  
> RH - RELATIVE HUMIDITY IN PERCENT <  
> WIND - DIRECTION (FROM) AND SPEED IN MPH <  
> PRES - MEAN SEA LEVEL PRESSURE (INCHES OF HG) <  
> WCI - WIND CHILL INDEX <  
> VSB - VISIBILITY IN MILES <  
> HX - HEAT INDEX <  
> TC - TEMPERATURE IN CELSIUS <  
> VRB - VARIABLE WIND DIRECTION <  
> <  
>>>>>>>>>>>>>>>>>>>>>>>>>>>> KEY <<<<<<<<<<<<<<<<<<<<<<<<<<<  
 
 
CLICK HERE TO GO TO PREVIOUS BULLETINS.

The Nexlab NY Page
The Nexlab NJ Page
The Nexlab CT Page Main Text Page